Flag for Hungary Weather past 2 weeks in Győr, Hungary

Now
58 °F

Cool.


Feels Like: 58 °F
Forecast: 64 / 94 °F
Wind: No wind

Location: Gyor

Current Time: Jul 4, 2015 at 7:37:53 AM

Latest Report: Jul 4, 2015 at 6:00 AM


Visibility: N/A

Pressure: 30.29 "Hg

Humidity: 96%

Dew point: 56 °F

Location of GyőrLocation

Historic Weather in Győr — Graph

°F

Győr temperature yesterday

Maximum temperature yesterday: 87 °F (at 4:00 PM)
Minimum temperature yesterday: 62 °F (at 6:00 AM)
Average temperature yesterday: 76 °F

Past Weeks' High & Low Weather Summary

 TemperatureHumidityPressure
High88 °F (Jul 2, 4:00 PM)100% (Jul 2, 6:00 AM)30.32 "Hg (Jul 2, 6:00 AM)
Low49 °F (Jun 26, 6:00 AM)31% (Jul 1, 4:00 PM)29.77 "Hg (Jun 23, 6:00 AM)
Average66 °F66%30.09 "Hg
* Reported Jun 19 8:00 AM — Jul 4 6:00 AM, Győr, Weather by CustomWeather, © 2015

Note: Actual official high and low records may vary slightly from our data, if they occured in-between our weather recording intervals... More about our weather records

Advertising

Győr weather history for previous 24 hours

 ConditionsComfort  
Time TempWeatherWind HumidityBarometerVisibility
6:00 AM
Sat, Jul 4
58 °FCool.No wind96%30.29 "HgN/A
5:00 AM57 °FCool.No wind98%30.28 "HgN/A
4:00 AM58 °FCool.No wind97%30.29 "HgN/A
3:00 AM59 °FCool.No wind95%30.30 "HgN/A
2:00 AM61 °FCool.No wind91%30.31 "HgN/A
1:00 AM63 °FMild.No wind87%30.31 "HgN/A
12:00 AM65 °FMild.No wind80%30.32 "HgN/A
11:00 PM
Fri, Jul 3
67 °FMild.No wind76%30.31 "HgN/A
10:00 PM70 °FMild.No wind70%30.31 "HgN/A
9:00 PM77 °FMild.1 mph53%30.28 "HgN/A
8:00 PM83 °FPleasantly warm.1 mph35%30.27 "HgN/A
7:00 PM85 °FPleasantly warm.1 mph32%30.27 "HgN/A
6:00 PM87 °FPleasantly warm.2 mph31%30.27 "HgN/A
5:00 PM85 °FPleasantly warm.1 mph33%30.28 "HgN/A
4:00 PM87 °FPleasantly warm.1 mph32%30.29 "HgN/A
3:00 PM87 °FPleasantly warm.2 mph33%30.30 "HgN/A
2:00 PM85 °FPleasantly warm.3 mph33%30.31 "HgN/A
1:00 PM85 °FPleasantly warm.2 mph33%30.31 "HgN/A
12:00 PM82 °FPleasantly warm.3 mph33%30.32 "HgN/A
11:00 AM81 °FPleasantly warm.3 mph35%30.32 "HgN/A
10:00 AM80 °FWarm.2 mph42%30.32 "HgN/A
9:00 AM75 °FMild.2 mph44%30.32 "HgN/A
8:00 AM71 °FMild.1 mph52%30.32 "HgN/A
7:00 AM66 °FMild.No wind63%30.31 "HgN/A
Weather by CustomWeather, © 2015

See weather overviewHow to use our weather pages